TimeEDT,TemperatureF,Dew PointF,Humidity,Sea Level PressureIn,VisibilityMPH,Wind Direction,Wind SpeedMPH,Gust SpeedMPH,PrecipitationIn,Events,Conditions,WindDirDegrees,DateUTC
12:55 AM,39.2,24.6,56,30.17,10.0,NNE,6.9,-,N/A,,Clear,30,2013-04-06 04:55:00
1:55 AM,38.3,22.5,53,30.18,10.0,East,3.5,-,N/A,,Clear,80,2013-04-06 05:55:00
2:55 AM,37.4,21.6,53,30.19,10.0,East,5.8,-,N/A,,Clear,80,2013-04-06 06:55:00
3:55 AM,35.6,21.9,58,30.19,10.0,NE,3.5,-,N/A,,Clear,50,2013-04-06 07:55:00
4:55 AM,36.3,22.5,57,30.19,10.0,East,5.8,-,N/A,,Scattered Clouds,90,2013-04-06 08:55:00
5:55 AM,36.1,22.8,58,30.21,10.0,East,8.1,-,N/A,,Mostly Cloudy,90,2013-04-06 09:55:00
6:55 AM,35.6,22.8,60,30.23,10.0,East,4.6,-,N/A,,Overcast,80,2013-04-06 10:55:00
7:55 AM,35.8,22.6,59,30.25,10.0,East,5.8,-,N/A,,Scattered Clouds,100,2013-04-06 11:55:00
8:55 AM,38.7,20.8,49,30.25,10.0,ESE,10.4,-,N/A,,Mostly Cloudy,110,2013-04-06 12:55:00
9:55 AM,43.0,21.4,42,30.24,10.0,ESE,13.8,-,N/A,,Scattered Clouds,120,2013-04-06 13:55:00
10:55 AM,46.6,20.7,36,30.22,10.0,SE,18.4,21.9,N/A,,Mostly Cloudy,130,2013-04-06 14:55:00
11:55 AM,49.8,23.0,35,30.19,10.0,SE,17.3,-,N/A,,Mostly Cloudy,130,2013-04-06 15:55:00
12:55 PM,51.6,24.1,34,30.16,10.0,SSE,12.7,-,N/A,,Scattered Clouds,150,2013-04-06 16:55:00
1:55 PM,55.6,26.4,33,30.14,10.0,South,9.2,-,N/A,,Mostly Cloudy,170,2013-04-06 17:55:00
2:55 PM,58.6,27.9,31,30.11,10.0,Variable,4.6,-,N/A,,Mostly Cloudy,0,2013-04-06 18:55:00
3:55 PM,60.8,29.1,30,30.07,10.0,South,6.9,-,N/A,,Overcast,180,2013-04-06 19:55:00
4:55 PM,63.1,29.5,28,30.02,10.0,SE,16.1,-,N/A,,Mostly Cloudy,130,2013-04-06 20:55:00
5:55 PM,62.2,29.7,29,29.99,10.0,SE,13.8,-,N/A,,Mostly Cloudy,130,2013-04-06 21:55:00
6:55 PM,61.5,30.9,32,29.97,10.0,SE,8.1,-,N/A,,Mostly Cloudy,130,2013-04-06 22:55:00
7:55 PM,61.0,32.0,34,29.94,10.0,SE,12.7,-,N/A,,Mostly Cloudy,140,2013-04-06 23:55:00
8:55 PM,60.8,33.1,35,29.93,10.0,SSE,10.4,-,N/A,,Mostly Cloudy,150,2013-04-07 00:55:00
9:55 PM,58.5,34.0,40,29.94,10.0,SE,10.4,-,N/A,,Mostly Cloudy,140,2013-04-07 01:55:00
10:55 PM,56.8,31.1,38,29.91,10.0,SE,11.5,-,N/A,,Mostly Cloudy,130,2013-04-07 02:55:00
11:55 PM,56.5,33.4,42,29.91,10.0,SE,12.7,-,N/A,,Mostly Cloudy,140,2013-04-07 03:55:00